Location: Chefe Valiua
(16.5342°S, 37.2214°E)
Time: 12:28:07
(UTC+00:00)

Envisat - Pass Details

Date: 14 June 2021
Orbit: 764 x 766 km, 98.1° (Epoch: 25 July)

Event Time Altitude Azimuth Distance (km) Brightness Sun altitude
Rises 15:27:05 0° 187° (S) 3,246 6.1 -5.5°
Reaches altitude 10° 15:29:44 10° 200° (SSW) 2,315 5.5 -6.1°
Maximum altitude 15:33:52 25° 254° (WSW) 1,501 5.2 -7.0°
Drops below altitude 10° 15:37:59 10° 309° (NW) 2,298 6.9 -7.9°
Sets 15:40:38 0° 321° (NW) 3,218 7.4 -8.5°
